| time (UTC) | temp F | wind direction | speed MPH | gust MPH | rain 1hr in | rain 24hr in | rain mn in | humidity % | barometer mb |
| 20260508212549 | 82 | 304 | 4.0 | 15.0 | 0.00 | 0.00 | 0.00 | 43 | 1011.8 |
| 20260508212052 | 83 | 275 | 8.0 | 15.0 | 0.00 | 0.00 | 0.00 | 42 | 1011.9 |
| 20260508211549 | 82 | 250 | 4.0 | 13.0 | 0.00 | 0.00 | 0.00 | 44 | 1011.9 |
| 20260508211046 | 82 | 328 | 8.0 | 14.0 | 0.00 | 0.00 | 0.00 | 43 | 1011.9 |
| 20260508210545 | 82 | 234 | 8.0 | 14.0 | 0.00 | 0.00 | 0.00 | 41 | 1012.0 |
| 20260508210045 | 81 | 278 | 6.0 | 13.0 | 0.00 | 0.00 | 0.00 | 43 | 1012.0 |
| 20260508205544 | 81 | 327 | 8.0 | 13.0 | 0.00 | 0.00 | 0.00 | 43 | 1012.0 |
| 20260508205044 | 81 | 289 | 7.0 | 13.0 | 0.00 | 0.00 | 0.00 | 42 | 1012.1 |
| 20260508204544 | 81 | 346 | 4.0 | 12.0 | 0.00 | 0.00 | 0.00 | 43 | 1012.1 |
| 20260508204041 | 81 | 270 | 5.0 | 12.0 | 0.00 | 0.00 | 0.00 | 44 | 1012.3 |
| 20260508203541 | 80 | 324 | 6.0 | 12.0 | 0.00 | 0.00 | 0.00 | 43 | 1012.3 |
| 20260508203041 | 80 | 10 | 6.0 | 13.0 | 0.00 | 0.00 | 0.00 | 45 | 1012.4 |
| 20260508202540 | 80 | 8 | 7.0 | 13.0 | 0.00 | 0.00 | 0.00 | 44 | 1012.4 |
| 20260508202041 | 80 | 335 | 5.0 | 11.0 | 0.00 | 0.00 | 0.00 | 44 | 1012.5 |
| 20260508201541 | 80 | 310 | 4.0 | 10.0 | 0.00 | 0.00 | 0.00 | 44 | 1012.5 |
| 20260508201038 | 80 | 36 | 5.0 | 11.0 | 0.00 | 0.00 | 0.00 | 45 | 1012.5 |
| 20260508200538 | 80 | 359 | 6.0 | 13.0 | 0.00 | 0.00 | 0.00 | 44 | 1012.6 |
| 20260508200046 | 79 | 332 | 6.0 | 13.0 | 0.00 | 0.00 | 0.00 | 46 | 1012.6 |
| 20260508195536 | 78 | 341 | 8.0 | 13.0 | 0.00 | 0.00 | 0.00 | 45 | 1012.6 |
| 20260508195035 | 78 | 345 | 6.0 | 13.0 | 0.00 | 0.00 | 0.00 | 45 | 1012.7 |
| 20260508194534 | 78 | 342 | 5.0 | 12.0 | 0.00 | 0.00 | 0.00 | 47 | 1012.7 |
| 20260508194033 | 78 | 336 | 4.0 | 13.0 | 0.00 | 0.00 | 0.00 | 47 | 1012.8 |
| 20260508193531 | 77 | 291 | 8.0 | 13.0 | 0.00 | 0.00 | 0.00 | 47 | 1012.8 |
| 20260508193034 | 77 | 16 | 5.0 | 11.0 | 0.00 | 0.00 | 0.00 | 47 | 1012.9 |
| 20260508192531 | 78 | 4 | 5.0 | 14.0 | 0.00 | 0.00 | 0.00 | 48 | 1013.0 |
| 20260508192032 | 77 | 17 | 5.0 | 14.0 | 0.00 | 0.00 | 0.00 | 48 | 1013.1 |
| 20260508191530 | 76 | 13 | 6.0 | 14.0 | 0.00 | 0.00 | 0.00 | 48 | 1013.2 |
| 20260508191025 | 76 | 281 | 7.0 | 14.0 | 0.00 | 0.00 | 0.00 | 48 | 1013.2 |
| 20260508190524 | 75 | 294 | 6.0 | 14.0 | 0.00 | 0.00 | 0.00 | 49 | 1013.2 |
| 20260508190024 | 75 | 335 | 8.0 | 14.0 | 0.00 | 0.00 | 0.00 | 48 | 1013.4 |
| 20260508185526 | 75 | 307 | 7.0 | 13.0 | 0.00 | 0.00 | 0.00 | 49 | 1013.4 |
| 20260508185023 | 75 | 293 | 4.0 | 13.0 | 0.00 | 0.00 | 0.00 | 50 | 1013.3 |
| 20260508184526 | 75 | 263 | 5.0 | 12.0 | 0.00 | 0.00 | 0.00 | 50 | 1013.4 |
| 20260508184019 | 74 | 326 | 4.0 | 11.0 | 0.00 | 0.00 | 0.00 | 53 | 1013.5 |
| 20260508183518 | 74 | 318 | 6.0 | 12.0 | 0.00 | 0.00 | 0.00 | 54 | 1013.6 |
| 20260508183017 | 73 | 270 | 6.0 | 12.0 | 0.00 | 0.00 | 0.00 | 54 | 1013.6 |
| 20260508182515 | 73 | 334 | 4.0 | 11.0 | 0.00 | 0.00 | 0.00 | 55 | 1013.7 |
| 20260508182014 | 73 | 301 | 5.0 | 11.0 | 0.00 | 0.00 | 0.00 | 55 | 1013.7 |
| 20260508181514 | 73 | 296 | 4.0 | 10.0 | 0.00 | 0.00 | 0.00 | 56 | 1013.8 |
| 20260508181015 | 72 | 305 | 3.0 | 11.0 | 0.00 | 0.00 | 0.00 | 56 | 1013.8 |
| 20260508180511 | 72 | 295 | 5.0 | 11.0 | 0.00 | 0.00 | 0.00 | 56 | 1013.7 |
| 20260508180009 | 72 | 285 | 7.0 | 11.0 | 0.00 | 0.00 | 0.00 | 57 | 1013.9 |
| 20260508175507 | 71 | 303 | 4.0 | 14.0 | 0.00 | 0.00 | 0.00 | 58 | 1013.9 |
| 20260508175007 | 71 | 347 | 5.0 | 14.0 | 0.00 | 0.00 | 0.00 | 57 | 1013.9 |
| 20260508174506 | 71 | 332 | 5.0 | 13.0 | 0.00 | 0.00 | 0.00 | 58 | 1013.9 |
| 20260508174006 | 71 | 311 | 4.0 | 12.0 | 0.00 | 0.00 | 0.00 | 60 | 1013.9 |
| 20260508173502 | 70 | 301 | 2.0 | 11.0 | 0.00 | 0.00 | 0.00 | 60 | 1013.9 |
| 20260508173002 | 69 | 331 | 4.0 | 11.0 | 0.00 | 0.00 | 0.00 | 60 | 1014.0 |
| 20260508172600 | 69 | 313 | 5.0 | 10.0 | 0.00 | 0.00 | 0.00 | 60 | 1014.0 |
| 20260508172101 | 69 | 270 | 4.0 | 10.0 | 0.00 | 0.00 | 0.00 | 60 | 1014.0 |
| 20260508171558 | 68 | 228 | 5.0 | 10.0 | 0.00 | 0.00 | 0.00 | 61 | 1014.1 |
| 20260508171055 | 68 | 333 | 4.0 | 10.0 | 0.00 | 0.00 | 0.00 | 62 | 1014.1 |
| 20260508170557 | 67 | 329 | 4.0 | 10.0 | 0.00 | 0.00 | 0.00 | 63 | 1014.1 |
| 20260508170053 | 67 | 314 | 3.0 | 11.0 | 0.00 | 0.00 | 0.00 | 63 | 1014.1 |
| 20260508165551 | 67 | 294 | 6.0 | 11.0 | 0.00 | 0.00 | 0.00 | 64 | 1014.1 |
| 20260508165050 | 67 | 271 | 8.0 | 11.0 | 0.00 | 0.00 | 0.00 | 64 | 1014.1 |
| 20260508164549 | 67 | 268 | 5.0 | 11.0 | 0.00 | 0.00 | 0.00 | 66 | 1014.1 |
| 20260508164048 | 66 | 295 | 4.0 | 11.0 | 0.00 | 0.00 | 0.00 | 67 | 1014.1 |
| 20260508163546 | 65 | 291 | 5.0 | 10.0 | 0.00 | 0.00 | 0.00 | 68 | 1014.1 |
| 20260508163048 | 65 | 326 | 4.0 | 9.0 | 0.00 | 0.00 | 0.00 | 69 | 1014.1 |
| 20260508162546 | 64 | 263 | 4.0 | 11.0 | 0.00 | 0.00 | 0.00 | 70 | 1014.1 |
| 20260508162046 | 64 | 299 | 4.0 | 11.0 | 0.00 | 0.00 | 0.00 | 70 | 1014.1 |
| 20260508161543 | 64 | 247 | 5.0 | 10.0 | 0.00 | 0.00 | 0.00 | 70 | 1014.0 |
| 20260508161043 | 64 | 288 | 2.0 | 9.0 | 0.00 | 0.00 | 0.00 | 71 | 1014.0 |
| 20260508160543 | 64 | 339 | 3.0 | 9.0 | 0.00 | 0.00 | 0.00 | 71 | 1014.0 |
| 20260508160042 | 63 | 321 | 3.0 | 9.0 | 0.00 | 0.00 | 0.00 | 71 | 1014.0 |
| 20260508155542 | 63 | 299 | 4.0 | 10.0 | 0.00 | 0.00 | 0.00 | 72 | 1014.0 |
| 20260508155042 | 63 | 307 | 4.0 | 10.0 | 0.00 | 0.00 | 0.00 | 73 | 1014.1 |
| 20260508154540 | 62 | 325 | 3.0 | 9.0 | 0.00 | 0.00 | 0.00 | 73 | 1014.1 |
| 20260508154038 | 62 | 301 | 3.0 | 8.0 | 0.00 | 0.00 | 0.00 | 74 | 1014.1 |
| 20260508153537 | 62 | 327 | 2.0 | 7.0 | 0.00 | 0.00 | 0.00 | 75 | 1014.1 |
| 20260508153036 | 61 | 336 | 3.0 | 9.0 | 0.00 | 0.00 | 0.00 | 76 | 1014.1 |
| 20260508152537 | 61 | 300 | 5.0 | 9.0 | 0.00 | 0.00 | 0.00 | 76 | 1014.1 |
| 20260508152032 | 61 | 304 | 2.0 | 7.0 | 0.00 | 0.00 | 0.00 | 77 | 1014.0 |
| 20260508151533 | 60 | 243 | 4.0 | 9.0 | 0.00 | 0.00 | 0.00 | 78 | 1014.0 |
| 20260508151033 | 60 | 257 | 4.0 | 9.0 | 0.00 | 0.00 | 0.00 | 79 | 1013.9 |
| 20260508150532 | 60 | 280 | 1.0 | 8.0 | 0.00 | 0.00 | 0.00 | 80 | 1014.0 |
| 20260508150038 | 59 | 349 | 4.0 | 8.0 | 0.00 | 0.00 | 0.00 | 80 | 1014.0 |
| 20260508145527 | 59 | 313 | 3.0 | 9.0 | 0.00 | 0.00 | 0.00 | 81 | 1014.0 |
| 20260508145026 | 58 | 310 | 4.0 | 9.0 | 0.00 | 0.00 | 0.00 | 81 | 1013.9 |
| 20260508144538 | 58 | 330 | 3.0 | 8.0 | 0.00 | 0.00 | 0.00 | 82 | 1013.9 |
| 20260508144024 | 58 | 330 | 3.0 | 10.0 | 0.00 | 0.00 | 0.00 | 83 | 1013.9 |
| 20260508143525 | 57 | 341 | 4.0 | 9.0 | 0.00 | 0.00 | 0.00 | 83 | 1013.8 |
| 20260508143031 | 57 | 264 | 2.0 | 11.0 | 0.00 | 0.00 | 0.00 | 84 | 1013.7 |
| 20260508142519 | 57 | 316 | 5.0 | 11.0 | 0.00 | 0.00 | 0.00 | 84 | 1013.8 |
| 20260508142019 | 57 | 272 | 3.0 | 9.0 | 0.00 | 0.00 | 0.00 | 84 | 1013.6 |
| 20260508141523 | 57 | 330 | 3.0 | 9.0 | 0.00 | 0.00 | 0.00 | 85 | 1013.5 |
| 20260508141015 | 57 | 309 | 2.0 | 7.0 | 0.00 | 0.00 | 0.00 | 85 | 1013.6 |
| 20260508140513 | 56 | 299 | 3.0 | 8.0 | 0.00 | 0.00 | 0.00 | 85 | 1013.6 |
| 20260508140013 | 56 | 262 | 3.0 | 8.0 | 0.00 | 0.00 | 0.00 | 85 | 1013.6 |
| 20260508135512 | 56 | 266 | 3.0 | 7.0 | 0.00 | 0.00 | 0.00 | 85 | 1013.5 |
| 20260508135011 | 56 | 298 | 3.0 | 6.0 | 0.00 | 0.00 | 0.00 | 85 | 1013.4 |
| 20260508134612 | 56 | 328 | 2.0 | 5.0 | 0.00 | 0.00 | 0.00 | 85 | 1013.4 |
| 20260508134009 | 56 | 306 | 2.0 | 5.0 | 0.00 | 0.00 | 0.00 | 85 | 1013.2 |
| 20260508133507 | 56 | 318 | 2.0 | 5.0 | 0.00 | 0.00 | 0.00 | 85 | 1013.1 |
| 20260508133007 | 56 | 260 | 2.0 | 5.0 | 0.00 | 0.00 | 0.00 | 85 | 1013.2 |
| 20260508132505 | 56 | 311 | 2.0 | 8.0 | 0.00 | 0.00 | 0.00 | 85 | 1013.1 |
| 20260508132004 | 56 | 332 | 3.0 | 6.0 | 0.00 | 0.00 | 0.00 | 85 | 1013.1 |
| 20260508131503 | 56 | 283 | 2.0 | 6.0 | 0.00 | 0.00 | 0.00 | 85 | 1013.0 |
| 20260508131005 | 56 | 310 | 1.0 | 4.0 | 0.00 | 0.00 | 0.00 | 85 | 1013.0 |
| 20260508130501 | 56 | 272 | 2.0 | 5.0 | 0.00 | 0.00 | 0.00 | 85 | 1013.0 |
| 20260508130002 | 56 | 328 | 2.0 | 5.0 | 0.00 | 0.00 | 0.00 | 85 | 1013.0 |
| 20260508125600 | 56 | 322 | 2.0 | 6.0 | 0.00 | 0.00 | 0.00 | 85 | 1012.9 |
| 20260508125059 | 56 | 272 | 2.0 | 6.0 | 0.00 | 0.00 | 0.00 | 85 | 1012.9 |
| 20260508124603 | 56 | 273 | 2.0 | 6.0 | 0.00 | 0.00 | 0.00 | 84 | 1012.8 |
| 20260508124102 | 56 | 268 | 2.0 | 6.0 | 0.00 | 0.00 | 0.00 | 84 | 1012.8 |
| 20260508123558 | 56 | 303 | 2.0 | 4.0 | 0.00 | 0.00 | 0.00 | 84 | 1012.7 |
| 20260508123058 | 56 | 331 | 2.0 | 5.0 | 0.00 | 0.00 | 0.00 | 84 | 1012.7 |
| 20260508122557 | 57 | 310 | 1.0 | 5.0 | 0.00 | 0.00 | 0.00 | 84 | 1012.7 |
| 20260508122056 | 57 | 308 | 2.0 | 6.0 | 0.00 | 0.00 | 0.00 | 83 | 1012.8 |
| 20260508121555 | 57 | 287 | 3.0 | 6.0 | 0.00 | 0.00 | 0.00 | 83 | 1012.8 |
| 20260508121055 | 57 | 305 | 2.0 | 5.0 | 0.00 | 0.00 | 0.00 | 83 | 1012.7 |
| 20260508120553 | 57 | 306 | 2.0 | 6.0 | 0.00 | 0.00 | 0.00 | 82 | 1012.7 |
| 20260508120053 | 57 | 299 | 2.0 | 6.0 | 0.00 | 0.00 | 0.00 | 82 | 1012.7 |
| 20260508115553 | 58 | 291 | 3.0 | 6.0 | 0.00 | 0.00 | 0.00 | 82 | 1012.6 |
| 20260508115053 | 58 | 316 | 2.0 | 5.0 | 0.00 | 0.00 | 0.00 | 82 | 1012.6 |
| 20260508114555 | 58 | 315 | 3.0 | 6.0 | 0.00 | 0.00 | 0.00 | 82 | 1012.6 |
| 20260508114051 | 58 | 322 | 2.0 | 5.0 | 0.00 | 0.00 | 0.00 | 81 | 1012.6 |
| 20260508113550 | 58 | 320 | 2.0 | 5.0 | 0.00 | 0.00 | 0.00 | 81 | 1012.5 |
| 20260508113121 | 58 | 319 | 2.0 | 7.0 | 0.00 | 0.00 | 0.00 | 81 | 1012.5 |
| 20260508112550 | 58 | 329 | 3.0 | 7.0 | 0.00 | 0.00 | 0.00 | 80 | 1012.5 |
| 20260508112048 | 59 | 342 | 3.0 | 8.0 | 0.00 | 0.00 | 0.00 | 80 | 1012.5 |
| 20260508111547 | 59 | 331 | 3.0 | 8.0 | 0.00 | 0.00 | 0.00 | 80 | 1012.5 |
| 20260508111047 | 59 | 321 | 4.0 | 8.0 | 0.00 | 0.00 | 0.00 | 80 | 1012.5 |
| 20260508110546 | 59 | 247 | 3.0 | 6.0 | 0.00 | 0.00 | 0.00 | 79 | 1012.5 |
| 20260508110045 | 59 | 261 | 3.0 | 8.0 | 0.00 | 0.00 | 0.00 | 79 | 1012.5 |
| 20260508105546 | 59 | 324 | 3.0 | 8.0 | 0.00 | 0.00 | 0.00 | 79 | 1012.5 |
| 20260508105045 | 59 | 312 | 3.0 | 7.0 | 0.00 | 0.00 | 0.00 | 78 | 1012.5 |
| 20260508104553 | 60 | 326 | 2.0 | 8.0 | 0.00 | 0.00 | 0.00 | 78 | 1012.5 |
| 20260508104043 | 60 | 260 | 2.0 | 8.0 | 0.00 | 0.00 | 0.00 | 78 | 1012.6 |
| 20260508103542 | 60 | 326 | 3.0 | 6.0 | 0.00 | 0.00 | 0.00 | 77 | 1012.5 |
| 20260508103042 | 60 | 316 | 2.0 | 9.0 | 0.00 | 0.00 | 0.00 | 77 | 1012.5 |
| 20260508102540 | 60 | 303 | 4.0 | 9.0 | 0.00 | 0.00 | 0.00 | 77 | 1012.5 |
| 20260508102039 | 60 | 302 | 2.0 | 9.0 | 0.00 | 0.00 | 0.00 | 76 | 1012.5 |
| 20260508101541 | 60 | 277 | 2.0 | 6.0 | 0.00 | 0.00 | 0.00 | 76 | 1012.4 |
| 20260508101037 | 61 | 337 | 3.0 | 7.0 | 0.00 | 0.00 | 0.00 | 75 | 1012.4 |
| 20260508100535 | 61 | 273 | 2.0 | 7.0 | 0.00 | 0.00 | 0.00 | 75 | 1012.4 |
| 20260508100038 | 61 | 305 | 3.0 | 7.0 | 0.00 | 0.00 | 0.00 | 75 | 1012.4 |
| 20260508095535 | 61 | 310 | 2.0 | 8.0 | 0.00 | 0.00 | 0.00 | 74 | 1012.4 |
| 20260508095033 | 61 | 337 | 3.0 | 8.0 | 0.00 | 0.00 | 0.00 | 74 | 1012.3 |
| 20260508094533 | 61 | 318 | 3.0 | 8.0 | 0.00 | 0.00 | 0.00 | 74 | 1012.4 |
| 20260508094031 | 62 | 301 | 3.0 | 7.0 | 0.00 | 0.00 | 0.00 | 73 | 1012.4 |
| 20260508093531 | 62 | 316 | 3.0 | 5.0 | 0.00 | 0.00 | 0.00 | 73 | 1012.4 |
| 20260508093030 | 62 | 326 | 3.0 | 8.0 | 0.00 | 0.00 | 0.00 | 73 | 1012.4 |
| 20260508092532 | 62 | 304 | 2.0 | 7.0 | 0.00 | 0.00 | 0.00 | 73 | 1012.4 |
| 20260508092029 | 62 | 328 | 2.0 | 6.0 | 0.00 | 0.00 | 0.00 | 72 | 1012.4 |
| 20260508091529 | 62 | 276 | 2.0 | 5.0 | 0.00 | 0.00 | 0.00 | 72 | 1012.4 |
| 20260508091027 | 62 | 300 | 2.0 | 6.0 | 0.00 | 0.00 | 0.00 | 72 | 1012.4 |
| 20260508090527 | 63 | 333 | 2.0 | 4.0 | 0.00 | 0.00 | 0.00 | 72 | 1012.4 |
| 20260508090033 | 63 | 349 | 2.0 | 6.0 | 0.00 | 0.00 | 0.00 | 71 | 1012.3 |
| 20260508085525 | 63 | 320 | 3.0 | 6.0 | 0.00 | 0.00 | 0.00 | 71 | 1012.3 |
| 20260508085024 | 63 | 288 | 2.0 | 5.0 | 0.00 | 0.00 | 0.00 | 71 | 1012.3 |
| 20260508084524 | 63 | 320 | 2.0 | 6.0 | 0.00 | 0.00 | 0.00 | 71 | 1012.4 |
| 20260508084024 | 63 | 276 | 3.0 | 6.0 | 0.00 | 0.00 | 0.00 | 71 | 1012.3 |
| 20260508083522 | 64 | 318 | 3.0 | 7.0 | 0.00 | 0.00 | 0.00 | 71 | 1012.3 |
| 20260508083022 | 64 | 315 | 2.0 | 7.0 | 0.00 | 0.00 | 0.00 | 71 | 1012.4 |
| 20260508082525 | 64 | 332 | 2.0 | 5.0 | 0.00 | 0.00 | 0.00 | 71 | 1012.3 |
| 20260508082021 | 64 | 343 | 2.0 | 6.0 | 0.00 | 0.00 | 0.00 | 71 | 1012.4 |
| 20260508081520 | 64 | 272 | 1.0 | 8.0 | 0.00 | 0.00 | 0.00 | 71 | 1012.3 |
| 20260508081022 | 64 | 327 | 2.0 | 8.0 | 0.00 | 0.00 | 0.00 | 72 | 1012.3 |
| 20260508080519 | 64 | 324 | 3.0 | 8.0 | 0.00 | 0.00 | 0.00 | 72 | 1012.3 |
| 20260508080018 | 65 | 332 | 4.0 | 12.0 | 0.00 | 0.00 | 0.00 | 72 | 1012.2 |
| 20260508075517 | 65 | 326 | 4.0 | 12.0 | 0.00 | 0.00 | 0.00 | 72 | 1012.2 |
| 20260508075016 | 65 | 345 | 2.0 | 5.0 | 0.00 | 0.00 | 0.00 | 72 | 1012.1 |
| 20260508074518 | 65 | 320 | 2.0 | 9.0 | 0.00 | 0.00 | 0.00 | 72 | 1012.1 |
| 20260508074015 | 65 | 359 | 3.0 | 8.0 | 0.00 | 0.00 | 0.00 | 72 | 1012.1 |
| 20260508073516 | 65 | 349 | 3.0 | 8.0 | 0.00 | 0.00 | 0.00 | 72 | 1012.2 |
| 20260508073016 | 66 | 327 | 3.0 | 8.0 | 0.00 | 0.00 | 0.00 | 72 | 1012.2 |
| 20260508072513 | 66 | 4 | 3.0 | 8.0 | 0.00 | 0.00 | 0.00 | 72 | 1012.2 |
| 20260508072013 | 66 | 327 | 3.0 | 8.0 | 0.00 | 0.00 | 0.00 | 72 | 1012.1 |
| 20260508071512 | 66 | 327 | 3.0 | 10.0 | 0.00 | 0.00 | 0.00 | 72 | 1012.1 |
| 20260508071010 | 66 | 325 | 4.0 | 10.0 | 0.00 | 0.00 | 0.00 | 72 | 1012.1 |
| 20260508070516 | 67 | 323 | 2.0 | 9.0 | 0.00 | 0.00 | 0.00 | 72 | 1012.1 |
| 20260508070010 | 67 | 331 | 3.0 | 9.0 | 0.00 | 0.00 | 0.00 | 72 | 1012.1 |
| 20260508065509 | 67 | 330 | 2.0 | 8.0 | 0.00 | 0.00 | 0.00 | 72 | 1012.0 |
| 20260508065009 | 67 | 332 | 3.0 | 8.0 | 0.00 | 0.00 | 0.00 | 71 | 1012.0 |
| 20260508064537 | 68 | 341 | 3.0 | 10.0 | 0.00 | 0.00 | 0.00 | 70 | 1012.0 |
| 20260508064010 | 68 | 333 | 4.0 | 10.0 | 0.00 | 0.00 | 0.00 | 70 | 1012.0 |
| 20260508063510 | 68 | 335 | 4.0 | 8.0 | 0.00 | 0.00 | 0.00 | 69 | 1012.0 |
| 20260508063015 | 68 | 27 | 2.0 | 10.0 | 0.00 | 0.00 | 0.00 | 68 | 1011.9 |
| 20260508062511 | 69 | 354 | 5.0 | 10.0 | 0.00 | 0.00 | 0.00 | 67 | 1012.0 |
| 20260508062009 | 69 | 326 | 3.0 | 9.0 | 0.00 | 0.00 | 0.00 | 66 | 1012.0 |
| 20260508061509 | 69 | 335 | 3.0 | 9.0 | 0.00 | 0.00 | 0.00 | 65 | 1012.0 |
| 20260508061011 | 70 | 337 | 3.0 | 9.0 | 0.00 | 0.00 | 0.00 | 64 | 1011.9 |
| 20260508060509 | 70 | 314 | 3.0 | 9.0 | 0.00 | 0.00 | 0.00 | 63 | 1011.9 |
| 20260508060008 | 70 | 335 | 4.0 | 8.0 | 0.00 | 0.00 | 0.00 | 63 | 1011.9 |
| 20260508055508 | 70 | 274 | 3.0 | 8.0 | 0.00 | 0.00 | 0.00 | 63 | 1011.8 |
| 20260508055008 | 71 | 354 | 3.0 | 10.0 | 0.00 | 0.00 | 0.00 | 63 | 1011.8 |
| 20260508054510 | 71 | 280 | 5.0 | 11.0 | 0.00 | 0.00 | 0.00 | 63 | 1011.8 |
| 20260508054008 | 71 | 312 | 5.0 | 11.0 | 0.00 | 0.00 | 0.00 | 63 | 1011.9 |
| 20260508053508 | 71 | 298 | 4.0 | 12.0 | 0.00 | 0.00 | 0.00 | 64 | 1011.9 |
| 20260508053008 | 71 | 291 | 3.0 | 14.0 | 0.00 | 0.00 | 0.00 | 65 | 1011.8 |
| 20260508052507 | 72 | 331 | 5.0 | 14.0 | 0.00 | 0.00 | 0.00 | 65 | 1011.9 |
| 20260508052007 | 72 | 354 | 4.0 | 9.0 | 0.00 | 0.00 | 0.00 | 65 | 1011.8 |
| 20260508051511 | 72 | 326 | 4.0 | 9.0 | 0.00 | 0.00 | 0.00 | 64 | 1011.8 |
| 20260508051007 | 73 | 266 | 4.0 | 9.0 | 0.00 | 0.00 | 0.00 | 64 | 1011.8 |
| 20260508050507 | 73 | 340 | 4.0 | 9.0 | 0.00 | 0.00 | 0.00 | 64 | 1011.9 |
| 20260508050013 | 73 | 329 | 2.0 | 6.0 | 0.00 | 0.00 | 0.00 | 64 | 1011.9 |
| 20260508045506 | 73 | 339 | 3.0 | 8.0 | 0.00 | 0.00 | 0.00 | 64 | 1011.9 |
| 20260508045007 | 74 | 312 | 3.0 | 9.0 | 0.00 | 0.00 | 0.00 | 65 | 1011.9 |
| 20260508044506 | 74 | 354 | 4.0 | 9.0 | 0.00 | 0.00 | 0.00 | 65 | 1011.9 |
| 20260508044005 | 74 | 338 | 2.0 | 6.0 | 0.00 | 0.00 | 0.00 | 66 | 1011.8 |
| 20260508043508 | 74 | 316 | 3.0 | 6.0 | 0.00 | 0.00 | 0.00 | 65 | 1011.8 |
| 20260508043005 | 74 | 312 | 3.0 | 6.0 | 0.00 | 0.00 | 0.00 | 65 | 1011.8 |
| 20260508042505 | 75 | 320 | 3.0 | 8.0 | 0.00 | 0.00 | 0.00 | 64 | 1011.7 |
| 20260508042004 | 75 | 337 | 2.0 | 8.0 | 0.00 | 0.00 | 0.00 | 63 | 1011.7 |
| 20260508041505 | 75 | 306 | 3.0 | 8.0 | 0.00 | 0.00 | 0.00 | 63 | 1011.5 |
| 20260508041004 | 75 | 249 | 3.0 | 8.0 | 0.00 | 0.00 | 0.00 | 63 | 1011.5 |
| 20260508040504 | 76 | 308 | 3.0 | 9.0 | 0.00 | 0.00 | 0.00 | 62 | 1011.4 |
| 20260508040004 | 76 | 343 | 5.0 | 9.0 | 0.00 | 0.00 | 0.00 | 62 | 1011.4 |
| 20260508035503 | 76 | 314 | 4.0 | 8.0 | 0.00 | 0.00 | 0.00 | 62 | 1011.2 |
| 20260508035004 | 76 | 338 | 3.0 | 9.0 | 0.00 | 0.00 | 0.00 | 62 | 1011.2 |
| 20260508034506 | 76 | 312 | 3.0 | 10.0 | 0.00 | 0.00 | 0.00 | 61 | 1011.1 |
| 20260508034003 | 76 | 305 | 3.0 | 10.0 | 0.00 | 0.00 | 0.00 | 61 | 1011.1 |
| 20260508033502 | 77 | 328 | 3.0 | 6.0 | 0.00 | 0.00 | 0.00 | 60 | 1011.1 |
| 20260508033003 | 77 | 330 | 2.0 | 8.0 | 0.00 | 0.00 | 0.00 | 60 | 1011.1 |
| 20260508032502 | 77 | 76 | 3.0 | 9.0 | 0.00 | 0.00 | 0.00 | 59 | 1010.9 |
| 20260508032002 | 78 | 312 | 5.0 | 10.0 | 0.00 | 0.00 | 0.00 | 59 | 1010.8 |
| 20260508031607 | 78 | 341 | 3.0 | 10.0 | 0.00 | 0.00 | 0.00 | 59 | 1010.8 |
| 20260508031059 | 78 | 334 | 4.0 | 10.0 | 0.00 | 0.00 | 0.00 | 58 | 1010.9 |
| 20260508030559 | 78 | 323 | 4.0 | 10.0 | 0.00 | 0.00 | 0.00 | 58 | 1010.9 |
| 20260508030106 | 78 | 343 | 4.0 | 9.0 | 0.00 | 0.00 | 0.00 | 58 | 1010.8 |
| 20260508025559 | 79 | 335 | 3.0 | 9.0 | 0.00 | 0.00 | 0.00 | 57 | 1010.7 |
| 20260508025059 | 79 | 316 | 4.0 | 10.0 | 0.00 | 0.00 | 0.00 | 56 | 1010.7 |
| 20260508024559 | 80 | 347 | 4.0 | 10.0 | 0.00 | 0.00 | 0.00 | 56 | 1010.6 |
| 20260508024059 | 80 | 349 | 5.0 | 10.0 | 0.00 | 0.00 | 0.00 | 55 | 1010.7 |
| 20260508023558 | 80 | 335 | 4.0 | 10.0 | 0.00 | 0.00 | 0.00 | 55 | 1010.6 |
| 20260508023059 | 81 | 329 | 4.0 | 10.0 | 0.00 | 0.00 | 0.00 | 54 | 1010.5 |
| 20260508022558 | 81 | 343 | 3.0 | 10.0 | 0.00 | 0.00 | 0.00 | 54 | 1010.6 |
| 20260508022058 | 81 | 343 | 5.0 | 11.0 | 0.00 | 0.00 | 0.00 | 53 | 1010.5 |
| 20260508021605 | 82 | 18 | 5.0 | 11.0 | 0.00 | 0.00 | 0.00 | 53 | 1010.5 |
| 20260508021058 | 82 | 340 | 6.0 | 10.0 | 0.00 | 0.00 | 0.00 | 53 | 1010.4 |
| 20260508020557 | 82 | 328 | 3.0 | 12.0 | 0.00 | 0.00 | 0.00 | 52 | 1010.5 |
| 20260508020057 | 82 | 335 | 4.0 | 9.0 | 0.00 | 0.00 | 0.00 | 52 | 1010.5 |
| 20260508015557 | 82 | 316 | 5.0 | 11.0 | 0.00 | 0.00 | 0.00 | 51 | 1010.4 |
| 20260508015057 | 82 | 311 | 5.0 | 13.0 | 0.00 | 0.00 | 0.00 | 51 | 1010.5 |
| 20260508014557 | 83 | 337 | 6.0 | 13.0 | 0.00 | 0.00 | 0.00 | 50 | 1010.5 |
| 20260508014057 | 83 | 339 | 6.0 | 12.0 | 0.00 | 0.00 | 0.00 | 48 | 1010.5 |
| 20260508013557 | 83 | 340 | 4.0 | 13.0 | 0.00 | 0.00 | 0.00 | 48 | 1010.6 |
| 20260508013057 | 83 | 274 | 5.0 | 12.0 | 0.00 | 0.00 | 0.00 | 48 | 1010.6 |
| 20260508012557 | 83 | 324 | 5.0 | 14.0 | 0.00 | 0.00 | 0.00 | 49 | 1010.6 |
| 20260508012101 | 84 | 354 | 7.0 | 13.0 | 0.00 | 0.00 | 0.00 | 47 | 1010.5 |
| 20260508011606 | 84 | 346 | 4.0 | 12.0 | 0.00 | 0.00 | 0.00 | 49 | 1010.5 |
| 20260508011056 | 84 | 301 | 6.0 | 13.0 | 0.00 | 0.00 | 0.00 | 49 | 1010.5 |
| 20260508010556 | 84 | 340 | 7.0 | 13.0 | 0.00 | 0.00 | 0.00 | 49 | 1010.5 |
| 20260508010100 | 85 | 299 | 5.0 | 14.0 | 0.00 | 0.00 | 0.00 | 49 | 1010.5 |
| 20260508005600 | 85 | 354 | 8.0 | 14.0 | 0.00 | 0.00 | 0.00 | 48 | 1010.5 |
| 20260508005100 | 85 | 318 | 5.0 | 12.0 | 0.00 | 0.00 | 0.00 | 49 | 1010.4 |
| 20260508004556 | 85 | 303 | 6.0 | 12.0 | 0.00 | 0.00 | 0.00 | 48 | 1010.4 |
| 20260508004055 | 86 | 4 | 6.0 | 11.0 | 0.00 | 0.00 | 0.00 | 47 | 1010.5 |
| 20260508003555 | 85 | 347 | 4.0 | 13.0 | 0.00 | 0.00 | 0.00 | 48 | 1010.6 |
| 20260508003055 | 85 | 324 | 3.0 | 13.0 | 0.00 | 0.00 | 0.00 | 47 | 1010.6 |
| 20260508002554 | 86 | 359 | 5.0 | 10.0 | 0.00 | 0.00 | 0.00 | 47 | 1010.6 |
| 20260508002054 | 85 | 336 | 4.0 | 12.0 | 0.00 | 0.00 | 0.00 | 48 | 1010.6 |
| 20260508001553 | 86 | 264 | 6.0 | 12.0 | 0.00 | 0.00 | 0.00 | 47 | 1010.7 |
| 20260508001052 | 86 | 343 | 4.0 | 12.0 | 0.00 | 0.00 | 0.00 | 47 | 1010.7 |
| 20260508000552 | 86 | 341 | 3.0 | 12.0 | 0.00 | 0.00 | 0.00 | 47 | 1010.7 |
| 20260508000108 | 86 | 336 | 4.0 | 12.0 | 0.00 | 0.00 | 0.00 | 47 | 1010.7 |
| 20260507235553 | 86 | 50 | 4.0 | 12.0 | 0.00 | 0.00 | 0.00 | 46 | 1010.7 |
| 20260507235051 | 86 | 326 | 2.0 | 12.0 | 0.00 | 0.00 | 0.00 | 47 | 1010.8 |
| 20260507234551 | 86 | 288 | 6.0 | 14.0 | 0.00 | 0.00 | 0.00 | 46 | 1010.7 |
| 20260507234055 | 86 | 305 | 5.0 | 14.0 | 0.00 | 0.00 | 0.00 | 46 | 1010.8 |
| 20260507233549 | 86 | 40 | 5.0 | 13.0 | 0.00 | 0.00 | 0.00 | 46 | 1010.7 |
| 20260507233049 | 86 | 269 | 5.0 | 10.0 | 0.00 | 0.00 | 0.00 | 46 | 1010.8 |
| 20260507232549 | 86 | 16 | 5.0 | 11.0 | 0.00 | 0.00 | 0.00 | 46 | 1010.8 |
| 20260507232048 | 86 | 289 | 5.0 | 11.0 | 0.00 | 0.00 | 0.00 | 46 | 1010.9 |
| 20260507231553 | 86 | 281 | 4.0 | 11.0 | 0.00 | 0.00 | 0.00 | 45 | 1011.0 |
| 20260507231049 | 86 | 322 | 4.0 | 10.0 | 0.00 | 0.00 | 0.00 | 45 | 1011.1 |
| 20260507230549 | 86 | 25 | 5.0 | 12.0 | 0.00 | 0.00 | 0.00 | 44 | 1011.1 |
| 20260507230045 | 86 | 4 | 2.0 | 10.0 | 0.00 | 0.00 | 0.00 | 46 | 1011.1 |
| 20260507225545 | 86 | 320 | 4.0 | 13.0 | 0.00 | 0.00 | 0.00 | 46 | 1011.2 |
| 20260507225044 | 85 | 280 | 6.0 | 13.0 | 0.00 | 0.00 | 0.00 | 46 | 1011.3 |
| 20260507224543 | 85 | 330 | 6.0 | 12.0 | 0.00 | 0.00 | 0.00 | 46 | 1011.4 |
| 20260507224043 | 85 | 303 | 4.0 | 12.0 | 0.00 | 0.00 | 0.00 | 46 | 1011.4 |
| 20260507223544 | 85 | 322 | 6.0 | 11.0 | 0.00 | 0.00 | 0.00 | 46 | 1011.5 |
| 20260507223041 | 86 | 287 | 4.0 | 11.0 | 0.00 | 0.00 | 0.00 | 45 | 1011.6 |
| 20260507222541 | 85 | 273 | 5.0 | 11.0 | 0.00 | 0.00 | 0.00 | 45 | 1011.7 |
| 20260507222038 | 85 | 287 | 2.0 | 10.0 | 0.00 | 0.00 | 0.00 | 46 | 1011.7 |
| 20260507221539 | 85 | 283 | 5.0 | 12.0 | 0.00 | 0.00 | 0.00 | 46 | 1011.8 |
| 20260507221037 | 84 | 343 | 4.0 | 12.0 | 0.00 | 0.00 | 0.00 | 47 | 1011.8 |
| 20260507220539 | 85 | 248 | 5.0 | 12.0 | 0.00 | 0.00 | 0.00 | 46 | 1011.9 |
| 20260507220036 | 84 | 306 | 5.0 | 11.0 | 0.00 | 0.00 | 0.00 | 47 | 1012.0 |
| 20260507215536 | 84 | 251 | 5.0 | 11.0 | 0.00 | 0.00 | 0.00 | 48 | 1012.1 |
| 20260507215035 | 83 | 312 | 6.0 | 11.0 | 0.00 | 0.00 | 0.00 | 48 | 1012.1 |
| 20260507214534 | 83 | 261 | 6.0 | 11.0 | 0.00 | 0.00 | 0.00 | 47 | 1012.2 |
| 20260507214034 | 84 | 328 | 3.0 | 13.0 | 0.00 | 0.00 | 0.00 | 47 | 1012.3 |
| 20260507213534 | 85 | 322 | 5.0 | 13.0 | 0.00 | 0.00 | 0.00 | 45 | 1012.4 |
| 20260507213039 | 84 | 227 | 4.0 | 12.0 | 0.00 | 0.00 | 0.00 | 47 | 1012.3 |